This demonstration page uses our WeatherBlox Daily Observations layout. Learn more.

Left ArrowRight Arrow

39.12711, -84.51439

Hourly Observations for June 5, 2015

Temp ( °F °C ) Dew Point ( °F °C ) Humidity (%) Winds ( mph kmh ) Pressure ( in mb ) Visibility ( mi km ) Precip ( " mm )
12:53 am 00:53 Clear 60 15.6 58 14.4 93 93 Calm 30.04 1017 9 14 0.00 0.00
1:53 am 01:53 Clear 59 15 58 14.4 96 96 Calm 30.04 1017 7 11 0.00 0.00
2:53 am 02:53 Clear with Mist and Fog 58 14.4 57 13.9 97 97 Calm 30.04 1017 4 6 0.00 0.00
3:53 am 03:53 Clear with Mist and Fog 57 13.9 57 13.9 100 100 Calm 30.05 1018 3 4 0.00 0.00
4:08 am 04:08 Clear with Mist and Fog 58 14.4 58 14.4 100 100 Calm 30.06 1018 4 6 0.00 0.00
4:19 am 04:19 Clear with Mist and Fog 56 13.3 56 13.3 100 100 Calm 30.06 1018 2 2 0.00 0.00
4:29 am 04:29 Clear with Fog 56 13.3 56 13.3 100 100 Calm 30.06 1018 1 1 0.00 0.00
4:40 am 04:40 Clear with Mist and Fog 57 14 55 13 94 94 Calm 30.06 1018 2 2 0.00 0.00
4:47 am 04:47 Clear with Mist and Fog 55 13 55 13 100 100 Calm 30.06 1018 3 5 0.00 0.00
4:53 am 04:53 Clear with Mist and Fog 56 13.3 56 13.3 100 100 Calm 30.04 1017 2 3 0.00 0.00
4:56 am 04:56 Clear with Mist and Fog 55 13 55 13 100 100 Calm 30.06 1018 1 1 0.00 0.00
5:40 am 05:40 Mostly Cloudy with Fog 55 13 55 13 100 100 Calm 30.06 1018 1 1 0.00 0.00
5:53 am 05:53 Mostly Cloudy with Mist and Fog 56 13.3 55 12.8 97 97 Calm 30.04 1017 2 2 0.00 0.00
5:56 am 05:56 Mostly Cloudy with Mist and Fog 55 13 55 13 100 100 Calm 30.06 1018 1 1 0.00 0.00
6:10 am 06:10 Mostly Cloudy with Mist and Fog 55 13 54 12 94 94 Calm 30.06 1018 1 2 0.00 0.00
6:12 am 06:12 Mostly Cloudy with Mist and Fog 55 13 55 13 100 100 Calm 30.06 1018 3 5 0.00 0.00
6:16 am 06:16 Mostly Cloudy with Mist and Fog 55 12.8 54 12.2 96 96 Calm 30.06 1018 1 1 0.00 0.00
6:25 am 06:25 Mostly Cloudy with Fog 56 13.3 56 13.3 100 100 Calm 30.06 1018 0 0 0.00 0.00
6:32 am 06:32 Mostly Cloudy with Fog 55 13 55 13 100 100 Calm 30.06 1018 1 1 0.00 0.00
6:37 am 06:37 Sunny with Fog 55 12.8 55 12.8 100 100 Calm 30.06 1018 1 1 0.00 0.00
6:41 am 06:41 Mostly Cloudy with Fog 54 12.2 54 12.2 100 100 Calm 30.06 1018 0 0 0.00 0.00
6:53 am 06:53 Sunny with Mist and Fog 56 13.3 56 13.3 100 100 Calm 30.05 1018 4 6 0.00 0.00
7:53 am 07:53 Sunny 60 15.6 60 15.6 100 100 Calm 30.06 1018 7 11 0.00 0.00
8:53 am 08:53 Sunny 66 18.9 61 16.1 84 84 Calm 30.06 1018 7 11 0.00 0.00
9:53 am 09:53 Mostly Cloudy 72 22.2 63 17.2 73 73 Calm 30.05 1018 10 16 0.00 0.00
10:53 am 10:53 Sunny 77 25 62 16.7 60 60 VRB 3 6 30.04 1017 10 16 0.00 0.00
11:53 am 11:53 Sunny 80 26.7 62 16.7 54 54 undefined N/A 30.04 1017 10 16 0.00 0.00
12:53 pm 12:53 Sunny 82 27.8 60 15.6 47 47 VRB 3 6 30.02 1017 10 16 0.00 0.00
1:53 pm 13:53 Partly Cloudy 82 27.8 61 16.1 49 49 SW 7 11 30.01 1016 10 16 0.00 0.00
2:53 pm 14:53 Partly Cloudy 83 28.3 60 15.6 46 46 W 3 6 29.99 1016 10 16 0.00 0.00
3:53 pm 15:53 Mostly Cloudy 81 27.2 63 17.2 54 54 S 3 6 29.98 1015 10 16 0.00 0.00
4:53 pm 16:53 Partly Cloudy 82 27.8 63 17.2 53 53 SSW 3 6 29.97 1015 10 16 0.00 0.00
5:53 pm 17:53 Mostly Sunny 83 28.3 61 16.1 48 48 W 6 9 29.95 1014 10 16 0.00 0.00
6:53 pm 18:53 Mostly Sunny 84 28.9 61 16.1 46 46 VRB 7 11 29.93 1014 10 16 0.00 0.00
7:53 pm 19:53 Mostly Sunny 80 26.7 61 16.1 52 52 W 8 13 29.93 1014 10 16 0.00 0.00
8:53 pm 20:53 Partly Cloudy with Nearby Thunderstorms 77 25 63 17.2 62 62 W 12 19 29.93 1014 10 16 0.00 0.00
9:28 pm 21:28 Cloudy with Thunderstorms 73 23 66 19 78 78 WNW 12 19 29.94 1014 10 16 0.00 0.00
9:35 pm 21:35 Cloudy 71 21.7 65 18.3 81 81 W 10 17 29.94 1014 10 16 0.01 0.25
9:53 pm 21:53 Cloudy 72 22.2 64 17.8 76 76 W 8 13 29.96 1015 10 16 0.01 0.25
10:53 pm 22:53 Clear 67 19.4 66 18.9 97 97 Calm 29.97 1015 10 16 0.00 0.00
11:53 pm 23:53 Clear 64 17.8 64 17.8 100 100 SSW 5 7 29.98 1015 8 13 0.00 0.00

Powered by AerisWeather